TERRESTAR-1

Last updated on Thu Oct 30 2025 00:02:48 GMT+0000 (Coordinated Universal Time)

1 35496U 09035A 25302.48909066 -.00000044 00000+0 00000+0 0 9995 2 35496 4.9947 48.7739 0002562 168.5165 245.8272 1.00271429 59827
UTC large
Height (km)
Speed (km/s)
/
Latitude / Longitude
Inclination (degrees)
Orbital Period (minutes)
Azimuth
Elevation
Range (km)
Doppler Factor

Next 0 passes for location: London (51.5072 / 0.1276)

Sorry there are no passes over London.